Preview of NWS' New Version of Forecast
This preview is not operational and should not be used for support decisions.

Regional Weather Roundup (RWR)

Issued by National Weather Service (NWS)

                            
000
ASPQ40 PGUM 230710
RWRPQ 
WEATHER ROUNDUP FOR THE MARIANAS AND MICRONESIA
NATIONAL WEATHER SERVICE TIYAN GU
500 PM CHST THU MAY 23 2019

GUZ001>004-230800-
MARIANA ISLANDS-
  
CITY           SKY/WX    TMP DP  RH WIND       PRES   REMARKS
GUAM AIRPORT   CLOUDY    81  75  83 E6        29.84S FOG              
ANDERSEN AFB   HVY RAIN  79  75  89 W10       29.85R FOG              
ROTA AIRPORT   MOSUNNY   82  72  69 S12       29.82S                  
TINIAN AP      MOSUNNY   90  66  45 SW9       29.81S HX  92           
SAIPAN AP      SUNNY     88  73  62 VRB7      29.82S HX  96           

$$

PMZ161-230800-
REPUBLIC OF PALAU-
  
CITY           SKY/WX    TMP DP  RH WIND       PRES   REMARKS
KOROR AP       LGT RAIN  81  77  89 S6        29.81S                  
KOROR WSO      NOT AVBL                                               

$$

PMZ171>174-230800-
FEDERATED STATES OF MICRONESIA-
  
CITY           SKY/WX    TMP DP  RH WIND       PRES   REMARKS
YAP AIRPORT    PTSUNNY   88  79  74 W9        29.80S HX 102           
CHUUK AP       MOSUNNY   86  77  74 VRB5      29.79R HX  97           
POHNPEI AP     NOT AVBL                                               
POHNPEI WSO    PTCLDY    82  75  78 S2        29.84R                  
KOSRAE AP      NOT AVBL                                               

$$

PMZ181-230800-
REPUBLIC OF THE MARSHALL ISLANDS-
  
CITY           SKY/WX    TMP DP  RH WIND       PRES   REMARKS
KWAJALEIN AP   PTCLDY    84  77  79 E6        29.82R HX  94           
MAJURO AP      NOT AVBL                                               
MAJURO WSO     CLOUDY    82  75  78 E3        29.82R                  

$$